Regional Weather Roundup
Issued by NWS Jackson, KY

Home | Current Version | Previous Version | Text Only | Print | Product List | Glossary Off
Versions: 1 2 3 4 5 6 7 8 9 10 11 12 13 14 15 16 17 18 19 20 21 22 23 24 25 26 27 28 29 30 31 32 33 34 35 36 37 38 39 40 41 42 43 44 45 46 47 48 49 50

000
ASUS43 KJKL 062010
RWRJKL

EAST KENTUCKY HOURLY WEATHER ROUNDUP
NATIONAL WEATHER SERVICE JACKSON KY
400 PM EDT WED MAY 06 2015

NOTE: "FAIR" INDICATES FEW OR NO CLOUDS BELOW 12,000 FEET WITH
NO SIGNIFICANT WEATHER AND/OR OBSTRUCTIONS TO VISIBILITY.

* THESE REPORTS ARE NOT UNDER NWS QUALITY CONTROL AND MAY NOT
  REPORT WEATHER SUCH AS PRECIPITATION AND FOG.

KYZ079-080-083-085-087-088-110-112-115-119-120-062100
...EASTERN KENTUCKY...

CITY           SKY/WX    TMP DP  RH WIND       PRES   REMARKS
JACKSON        MOSUNNY   82  51  34 NW6       30.16F
LONDON         MOSUNNY   83  50  31 NE8       30.14F
SOMERSET*      MOSUNNY   82  54  36 CALM      30.14F
MONTICELLO*    MOSUNNY   82  59  45 W3        30.16F
MIDDLESBORO*   MOSUNNY   83  58  41 NE18G24   30.15F
HARLAN APT*    CLOUDY    73  54  49 MISG      30.18F
HAZARD APT*    MOCLDY    88  54  31 CALM      30.15F
BLACK MTN*       N/A     70  52  52 N3          N/A
PIKEVILLE APT* SUNNY     82  54  36 CALM      30.16F
BIG SANDY*     CLEAR    N/A N/A N/A NE6       30.16F
MOREHEAD APT*  PTCLDY    82  54  36 CALM      30.18F
$$

KYZ035-036-041-042-044-050-067-078-099-062100
...CENTRAL KENTUCKY...

CITY           SKY/WX    TMP DP  RH WIND       PRES   REMARKS
MT STERLING*   SUNNY     82  52  34 E5        30.17F
FLEMING/MASON* SUNNY     84  54  34 CALM      30.16F
DANVILLE*      MOSUNNY   81  54  39 E6        30.17F
RICHMOND*      MOSUNNY   82  52  34 CALM      30.15F
LEXINGTON      PTSUNNY   83  55  38 VRB3      30.15F
FRANKFORT      MOSUNNY   84  55  36 VRB7      30.14F
$$

KYZ091>093-OHZ055-061-077-WVZ005-015-034-035-042-062100
...SOUTHERN OHIO/WEST VIRGINIA...

CITY           SKY/WX    TMP DP  RH WIND       PRES   REMARKS
COVINGTON      MOSUNNY   84  53  34 VRB3      30.15F
COLUMBUS       MOSUNNY   84  54  35 NW3       30.13F
DAYTON         MOSUNNY   85  51  31 N3        30.16F
WILMINGTON     SUNNY     83  51  33 SW7       30.15F
HUNTINGTON     SUNNY     86  50  28 N7        30.13F
CHARLESTON     MOSUNNY   86  51  29 VRB7      30.13F
PINEVILLE*     MOSUNNY   81  54  39 MISG      30.22F
BECKLEY        PTSUNNY   76  48  37 E7        30.21F
BLUEFIELD      PTSUNNY   81  48  31 VRB6      30.22F
$$

VAZ002-007-008-TNZ017-027-036-066-071-062100
...SOUTHWEST VIRGINIA/EAST TENNESSEE...

CITY           SKY/WX    TMP DP  RH WIND       PRES   REMARKS
WISE*          MOSUNNY   81  46  30 CALM      30.22F
JONESVILLE*    PTCLDY    79  55  44 N6        30.17F
ABINGDON*      PTSUNNY   78  52  40 CALM      30.18F
BRISTOL        PTSUNNY   80  55  42 S10       30.14F THUNDER
KNOXVILLE      MOSUNNY   85  53  33 N6        30.11F
OAK RIDGE      MOSUNNY   85  54  34 MISG      30.13F
CROSSVILLE     MOSUNNY   82  48  30 SE9       30.17F
NASHVILLE      MOSUNNY   86  54  33 NE6       30.13F
$$

...KEY TO REMARKS...
VSB - VISIBILITY IN MILES
WCI - WIND CHILL INDEX
HX  - HEAT INDEX

$$



USA.gov is the U.S. government's official web portal to all federal, state and local government web resources and services.